Time,TemperatureF,DewpointF,PressureIn,WindDirection,WindDirectionDegrees,WindSpeedMPH,WindSpeedGustMPH,Humidity,HourlyPrecipIn,Conditions,Clouds,dailyrainin,SoftwareType,DateUTC
2013-01-24 00:04:00,42.1,7.8,29.84,WSW,255,7.0,18.0,24,0.00,,,0.00,Wunderground v.1.15,2013-01-24 07:04:00,
2013-01-24 00:09:00,42.1,7.8,29.84,WNW,283,13.0,18.0,24,0.00,,,0.00,Wunderground v.1.15,2013-01-24 07:09:00,
2013-01-24 00:14:00,42.2,7.9,29.84,West,278,10.0,21.0,24,0.00,,,0.00,Wunderground v.1.15,2013-01-24 07:14:00,
2013-01-24 00:19:00,41.8,7.6,29.84,West,276,13.0,21.0,24,0.00,,,0.00,Wunderground v.1.15,2013-01-24 07:19:00,
2013-01-24 00:24:00,41.3,7.2,29.84,West,264,10.0,16.0,24,0.00,,,0.00,Wunderground v.1.15,2013-01-24 07:24:00,
2013-01-24 00:30:00,40.9,7.7,29.82,West,266,10.0,11.0,25,0.00,,,0.00,Wunderground v.1.15,2013-01-24 07:30:00,
2013-01-24 00:35:00,40.9,7.7,29.82,West,270,13.0,18.0,25,0.00,,,0.00,Wunderground v.1.15,2013-01-24 07:35:00,
2013-01-24 00:40:00,41.3,7.2,29.82,WNW,295,16.0,16.0,24,0.00,,,0.00,Wunderground v.1.15,2013-01-24 07:40:00,
2013-01-24 00:45:00,42.2,7.9,29.82,West,279,17.0,22.0,24,0.00,,,0.00,Wunderground v.1.15,2013-01-24 07:45:00,
2013-01-24 00:50:00,42.1,7.8,29.82,West,281,13.0,16.0,24,0.00,,,0.00,Wunderground v.1.15,2013-01-24 07:50:00,
2013-01-24 00:55:00,41.9,7.7,29.82,West,270,14.0,18.0,24,0.00,,,0.00,Wunderground v.1.15,2013-01-24 07:55:00,
2013-01-24 01:00:00,42.3,8.0,29.81,West,275,13.0,17.0,24,0.00,,,0.00,Wunderground v.1.15,2013-01-24 08:00:00,
2013-01-24 01:05:00,42.8,8.4,29.81,WNW,282,13.0,20.0,24,0.00,,,0.00,Wunderground v.1.15,2013-01-24 08:05:00,
2013-01-24 01:10:00,43.1,7.7,29.81,West,279,14.0,20.0,23,0.00,,,0.00,Wunderground v.1.15,2013-01-24 08:10:00,
2013-01-24 01:15:00,43.2,7.8,29.80,WNW,289,15.0,20.0,23,0.00,,,0.00,Wunderground v.1.15,2013-01-24 08:15:00,
2013-01-24 01:20:00,42.9,7.6,29.80,WNW,283,14.0,15.0,23,0.00,,,0.00,Wunderground v.1.15,2013-01-24 08:20:00,
2013-01-24 01:25:00,42.8,8.4,29.80,WNW,294,13.0,18.0,24,0.00,,,0.00,Wunderground v.1.15,2013-01-24 08:25:00,
2013-01-24 01:30:00,42.2,7.9,29.82,West,281,10.0,18.0,24,0.00,,,0.00,Wunderground v.1.15,2013-01-24 08:30:00,
2013-01-24 01:35:00,42.3,8.0,29.82,WNW,293,17.0,20.0,24,0.00,,,0.00,Wunderground v.1.15,2013-01-24 08:35:00,
2013-01-24 01:40:00,42.8,8.4,29.82,West,271,17.0,22.0,24,0.00,,,0.00,Wunderground v.1.15,2013-01-24 08:40:00,
2013-01-24 01:45:00,42.9,7.6,29.81,WNW,282,16.0,22.0,23,0.00,,,0.00,Wunderground v.1.15,2013-01-24 08:45:00,
2013-01-24 01:50:00,42.8,8.4,29.81,West,276,15.0,18.0,24,0.00,,,0.00,Wunderground v.1.15,2013-01-24 08:50:00,
2013-01-24 01:55:00,42.5,8.2,29.81,West,260,17.0,20.0,24,0.00,,,0.00,Wunderground v.1.15,2013-01-24 08:55:00,
2013-01-24 02:00:00,42.5,8.2,29.81,West,264,12.0,16.0,24,0.00,,,0.00,Wunderground v.1.15,2013-01-24 09:00:00,
2013-01-24 02:05:00,42.3,8.0,29.81,West,269,9.0,21.0,24,0.00,,,0.00,Wunderground v.1.15,2013-01-24 09:05:00,
2013-01-24 02:10:00,41.9,9.5,29.81,WNW,285,12.0,15.0,26,0.00,,,0.00,Wunderground v.1.15,2013-01-24 09:10:00,
2013-01-24 02:15:00,41.6,8.3,29.82,West,266,10.0,16.0,25,0.00,,,0.00,Wunderground v.1.15,2013-01-24 09:15:00,
2013-01-24 02:21:00,41.5,8.2,29.82,West,278,16.0,19.0,25,0.00,,,0.00,Wunderground v.1.15,2013-01-24 09:21:00,
2013-01-24 02:26:00,41.6,8.3,29.82,West,274,11.0,19.0,25,0.00,,,0.00,Wunderground v.1.15,2013-01-24 09:26:00,
2013-01-24 02:31:00,41.5,8.2,29.83,West,281,12.0,17.0,25,0.00,,,0.00,Wunderground v.1.15,2013-01-24 09:31:00,
2013-01-24 02:36:00,41.3,8.1,29.83,West,277,17.0,20.0,25,0.00,,,0.00,Wunderground v.1.15,2013-01-24 09:36:00,
2013-01-24 02:41:00,41.1,7.9,29.83,West,274,10.0,18.0,25,0.00,,,0.00,Wunderground v.1.15,2013-01-24 09:41:00,
2013-01-24 02:46:00,41.1,7.9,29.83,West,267,15.0,18.0,25,0.00,,,0.00,Wunderground v.1.15,2013-01-24 09:46:00,
2013-01-24 02:51:00,41.3,8.1,29.83,West,274,13.0,16.0,25,0.00,,,0.00,Wunderground v.1.15,2013-01-24 09:51:00,
2013-01-24 02:56:00,41.2,8.0,29.83,West,264,12.0,17.0,25,0.00,,,0.00,Wunderground v.1.15,2013-01-24 09:56:00,
2013-01-24 03:01:00,41.5,8.2,29.83,WNW,284,12.0,16.0,25,0.00,,,0.00,Wunderground v.1.15,2013-01-24 10:01:00,
2013-01-24 03:06:00,41.5,8.2,29.83,WNW,288,7.0,16.0,25,0.00,,,0.00,Wunderground v.1.15,2013-01-24 10:06:00,
2013-01-24 03:11:00,41.2,8.0,29.83,West,268,12.0,12.0,25,0.00,,,0.00,Wunderground v.1.15,2013-01-24 10:11:00,
2013-01-24 03:16:00,40.8,8.5,29.83,West,278,10.0,14.0,26,0.00,,,0.00,Wunderground v.1.15,2013-01-24 10:16:00,
2013-01-24 03:21:00,40.3,8.9,29.83,West,276,6.0,10.0,27,0.00,,,0.00,Wunderground v.1.15,2013-01-24 10:21:00,
2013-01-24 03:26:00,39.5,8.2,29.83,West,266,6.0,10.0,27,0.00,,,0.00,Wunderground v.1.15,2013-01-24 10:26:00,
2013-01-24 03:31:00,39.1,8.7,29.85,WNW,294,9.0,11.0,28,0.00,,,0.00,Wunderground v.1.15,2013-01-24 10:31:00,
2013-01-24 03:36:00,39.6,8.3,29.85,SW,224,11.0,16.0,27,0.00,,,0.00,Wunderground v.1.15,2013-01-24 10:36:00,
2013-01-24 03:41:00,38.6,8.2,29.85,SW,236,11.0,11.0,28,0.00,,,0.00,Wunderground v.1.15,2013-01-24 10:41:00,
2013-01-24 03:46:00,38.5,8.2,29.86,SW,232,6.0,11.0,28,0.00,,,0.00,Wunderground v.1.15,2013-01-24 10:46:00,
2013-01-24 03:51:00,37.8,7.6,29.86,SW,219,7.0,7.0,28,0.00,,,0.00,Wunderground v.1.15,2013-01-24 10:51:00,
2013-01-24 03:56:00,38.2,7.9,29.86,SW,232,7.0,12.0,28,0.00,,,0.00,Wunderground v.1.15,2013-01-24 10:56:00,
2013-01-24 04:01:00,38.6,8.2,29.85,SW,233,7.0,7.0,28,0.00,,,0.00,Wunderground v.1.15,2013-01-24 11:01:00,
2013-01-24 04:06:00,38.5,7.4,29.85,SW,230,9.0,10.0,27,0.00,,,0.00,Wunderground v.1.15,2013-01-24 11:06:00,
2013-01-24 04:11:00,37.9,7.6,29.85,SW,229,7.0,8.0,28,0.00,,,0.00,Wunderground v.1.15,2013-01-24 11:11:00,
2013-01-24 04:17:00,37.3,7.1,29.85,SW,229,5.0,8.0,28,0.00,,,0.00,Wunderground v.1.15,2013-01-24 11:17:00,
2013-01-24 04:22:00,37.0,7.6,29.85,SW,229,5.0,7.0,29,0.00,,,0.00,Wunderground v.1.15,2013-01-24 11:22:00,
2013-01-24 04:27:00,36.9,7.5,29.85,SW,230,7.0,8.0,29,0.00,,,0.00,Wunderground v.1.15,2013-01-24 11:27:00,
2013-01-24 04:32:00,37.0,7.6,29.88,WSW,254,9.0,10.0,29,0.00,,,0.00,Wunderground v.1.15,2013-01-24 11:32:00,
2013-01-24 04:37:00,37.8,6.8,29.88,West,262,12.0,14.0,27,0.00,,,0.00,Wunderground v.1.15,2013-01-24 11:37:00,
2013-01-24 04:42:00,39.5,8.2,29.88,West,259,13.0,19.0,27,0.00,,,0.00,Wunderground v.1.15,2013-01-24 11:42:00,
2013-01-24 04:47:00,40.2,8.0,29.87,West,259,15.0,19.0,26,0.00,,,0.00,Wunderground v.1.15,2013-01-24 11:47:00,
2013-01-24 04:52:00,40.2,8.0,29.87,WNW,297,14.0,15.0,26,0.00,,,0.00,Wunderground v.1.15,2013-01-24 11:52:00,
2013-01-24 04:57:00,39.9,8.6,29.87,West,275,11.0,15.0,27,0.00,,,0.00,Wunderground v.1.15,2013-01-24 11:57:00,
2013-01-24 05:02:00,39.8,8.5,29.87,West,269,10.0,13.0,27,0.00,,,0.00,Wunderground v.1.15,2013-01-24 12:02:00,
2013-01-24 05:07:00,40.2,8.0,29.87,West,268,11.0,13.0,26,0.00,,,0.00,Wunderground v.1.15,2013-01-24 12:07:00,
2013-01-24 05:12:00,40.5,7.4,29.87,West,259,11.0,12.0,25,0.00,,,0.00,Wunderground v.1.15,2013-01-24 12:12:00,
2013-01-24 05:17:00,40.8,7.6,29.86,WSW,257,9.0,13.0,25,0.00,,,0.00,Wunderground v.1.15,2013-01-24 12:17:00,
2013-01-24 05:22:00,41.2,8.0,29.86,West,261,10.0,14.0,25,0.00,,,0.00,Wunderground v.1.15,2013-01-24 12:22:00,
2013-01-24 05:27:00,41.8,8.5,29.86,WSW,253,9.0,16.0,25,0.00,,,0.00,Wunderground v.1.15,2013-01-24 12:27:00,
2013-01-24 05:32:00,41.8,8.5,29.88,West,281,9.0,13.0,25,0.00,,,0.00,Wunderground v.1.15,2013-01-24 12:32:00,
2013-01-24 05:37:00,41.6,8.3,29.88,West,262,4.0,13.0,25,0.00,,,0.00,Wunderground v.1.15,2013-01-24 12:37:00,
2013-01-24 05:42:00,41.6,8.3,29.88,West,273,10.0,11.0,25,0.00,,,0.00,Wunderground v.1.15,2013-01-24 12:42:00,
2013-01-24 05:47:00,41.8,8.5,29.87,WSW,249,14.0,16.0,25,0.00,,,0.00,Wunderground v.1.15,2013-01-24 12:47:00,
2013-01-24 05:52:00,42.6,9.2,29.87,WSW,256,17.0,23.0,25,0.00,,,0.00,Wunderground v.1.15,2013-01-24 12:52:00,
2013-01-24 05:57:00,42.9,9.4,29.87,WSW,249,15.0,23.0,25,0.00,,,0.00,Wunderground v.1.15,2013-01-24 12:57:00,
2013-01-24 06:02:00,42.9,9.4,29.86,West,262,21.0,21.0,25,0.00,,,0.00,Wunderground v.1.15,2013-01-24 13:02:00,
2013-01-24 06:07:00,42.8,9.3,29.86,West,261,15.0,21.0,25,0.00,,,0.00,Wunderground v.1.15,2013-01-24 13:07:00,
2013-01-24 06:12:00,42.8,10.2,29.86,West,266,20.0,23.0,26,0.00,,,0.00,Wunderground v.1.15,2013-01-24 13:12:00,
2013-01-24 06:17:00,43.1,9.6,29.85,SW,232,21.0,25.0,25,0.00,,,0.00,Wunderground v.1.15,2013-01-24 13:17:00,
2013-01-24 06:22:00,43.1,10.5,29.85,SW,232,15.0,26.0,26,0.00,,,0.00,Wunderground v.1.15,2013-01-24 13:22:00,
2013-01-24 06:27:00,43.1,10.5,29.85,SW,233,21.0,31.0,26,0.00,,,0.00,Wunderground v.1.15,2013-01-24 13:27:00,
2013-01-24 06:32:00,43.5,10.8,29.85,WSW,242,23.0,28.0,26,0.00,,,0.00,Wunderground v.1.15,2013-01-24 13:32:00,
2013-01-24 06:37:00,43.6,10.9,29.85,West,259,24.0,28.0,26,0.00,,,0.00,Wunderground v.1.15,2013-01-24 13:37:00,
2013-01-24 06:43:00,43.6,10.9,29.85,WSW,245,20.0,23.0,26,0.00,,,0.00,Wunderground v.1.15,2013-01-24 13:43:00,
2013-01-24 06:48:00,43.6,10.9,29.85,West,276,20.0,23.0,26,0.00,,,0.00,Wunderground v.1.15,2013-01-24 13:48:00,
2013-01-24 06:53:00,43.8,11.1,29.85,West,259,16.0,20.0,26,0.00,,,0.00,Wunderground v.1.15,2013-01-24 13:53:00,
2013-01-24 06:58:00,43.6,10.9,29.85,WSW,257,17.0,21.0,26,0.00,,,0.00,Wunderground v.1.15,2013-01-24 13:58:00,
2013-01-24 07:03:00,44.1,11.3,29.85,WSW,237,18.0,27.0,26,0.00,,,0.00,Wunderground v.1.15,2013-01-24 14:03:00,
2013-01-24 07:08:00,44.3,11.5,29.85,WSW,238,20.0,29.0,26,0.00,,,0.00,Wunderground v.1.15,2013-01-24 14:08:00,
2013-01-24 07:13:00,44.3,12.4,29.85,WSW,246,25.0,30.0,27,0.00,,,0.00,Wunderground v.1.15,2013-01-24 14:13:00,
2013-01-24 07:18:00,43.9,12.0,29.84,WSW,243,17.0,30.0,27,0.00,,,0.00,Wunderground v.1.15,2013-01-24 14:18:00,
2013-01-24 07:23:00,43.9,12.0,29.84,WSW,245,19.0,24.0,27,0.00,,,0.00,Wunderground v.1.15,2013-01-24 14:23:00,
2013-01-24 07:28:00,43.5,12.5,29.84,SW,234,19.0,24.0,28,0.00,,,0.00,Wunderground v.1.15,2013-01-24 14:28:00,
2013-01-24 07:33:00,43.2,12.2,29.84,WSW,252,18.0,22.0,28,0.00,,,0.00,Wunderground v.1.15,2013-01-24 14:33:00,
2013-01-24 07:38:00,43.2,11.4,29.84,West,259,14.0,22.0,27,0.00,,,0.00,Wunderground v.1.15,2013-01-24 14:38:00,
2013-01-24 07:43:00,43.6,12.6,29.84,North,0,21.0,25.0,28,0.00,,,0.00,Wunderground v.1.15,2013-01-24 14:43:00,
2013-01-24 07:48:00,44.3,13.2,29.84,WSW,256,23.0,31.0,28,0.00,,,0.00,Wunderground v.1.15,2013-01-24 14:48:00,
2013-01-24 07:53:00,44.5,12.5,29.84,West,281,21.0,26.0,27,0.00,,,0.00,Wunderground v.1.15,2013-01-24 14:53:00,
2013-01-24 07:58:00,44.2,12.3,29.83,North,0,18.0,26.0,27,0.00,,,0.00,Wunderground v.1.15,2013-01-24 14:58:00,
2013-01-24 08:03:00,43.9,12.8,29.83,North,0,16.0,22.0,28,0.00,,,0.00,Wunderground v.1.15,2013-01-24 15:03:00,
2013-01-24 08:08:00,43.8,12.8,29.83,WNW,284,12.0,22.0,28,0.00,,,0.00,Wunderground v.1.15,2013-01-24 15:08:00,
2013-01-24 08:13:00,43.6,12.6,29.83,West,259,14.0,19.0,28,0.00,,,0.00,Wunderground v.1.15,2013-01-24 15:13:00,
2013-01-24 08:18:00,44.5,13.4,29.83,West,263,23.0,27.0,28,0.00,,,0.00,Wunderground v.1.15,2013-01-24 15:18:00,
2013-01-24 08:23:00,45.7,13.6,29.83,West,262,22.0,24.0,27,0.00,,,0.00,Wunderground v.1.15,2013-01-24 15:23:00,
2013-01-24 08:29:00,46.0,14.7,29.81,West,269,19.0,30.0,28,0.00,,,0.00,Wunderground v.1.15,2013-01-24 15:29:00,
2013-01-24 08:34:00,46.4,14.2,29.81,North,0,29.0,29.0,27,0.00,,,0.00,Wunderground v.1.15,2013-01-24 15:34:00,
2013-01-24 08:39:00,46.7,14.4,29.81,WNW,289,25.0,29.0,27,0.00,,,0.00,Wunderground v.1.15,2013-01-24 15:39:00,
2013-01-24 08:44:00,47.1,15.6,29.80,WSW,247,22.0,31.0,28,0.00,,,0.00,Wunderground v.1.15,2013-01-24 15:44:00,
2013-01-24 08:49:00,47.7,15.3,29.80,West,266,18.0,33.0,27,0.00,,,0.00,Wunderground v.1.15,2013-01-24 15:49:00,
2013-01-24 08:54:00,48.6,16.1,29.80,West,259,21.0,32.0,27,0.00,,,0.00,Wunderground v.1.15,2013-01-24 15:54:00,
2013-01-24 08:59:00,49.5,17.7,29.79,WNW,288,18.0,32.0,28,0.00,,,0.00,Wunderground v.1.15,2013-01-24 15:59:00,
2013-01-24 09:04:00,50.8,18.8,29.79,WNW,301,30.0,33.0,28,0.00,,,0.00,Wunderground v.1.15,2013-01-24 16:04:00,
2013-01-24 09:09:00,51.3,18.4,29.79,North,0,35.0,37.0,27,0.00,,,0.00,Wunderground v.1.15,2013-01-24 16:09:00,
2013-01-24 09:14:00,51.7,18.7,29.78,West,275,27.0,36.0,27,0.00,,,0.00,Wunderground v.1.15,2013-01-24 16:14:00,
2013-01-24 09:19:00,52.3,19.3,29.78,North,0,33.0,36.0,27,0.00,,,0.00,Wunderground v.1.15,2013-01-24 16:19:00,
2013-01-24 09:24:00,52.3,20.1,29.78,West,266,21.0,35.0,28,0.00,,,0.00,Wunderground v.1.15,2013-01-24 16:24:00,
2013-01-24 09:29:00,52.2,20.0,29.76,West,260,26.0,37.0,28,0.00,,,0.00,Wunderground v.1.15,2013-01-24 16:29:00,
2013-01-24 09:34:00,51.6,20.3,29.76,WNW,282,22.0,40.0,29,0.00,,,0.00,Wunderground v.1.15,2013-01-24 16:34:00,
2013-01-24 09:39:00,50.8,20.4,29.76,North,0,35.0,35.0,30,0.00,,,0.00,Wunderground v.1.15,2013-01-24 16:39:00,
2013-01-24 09:44:00,50.1,21.3,29.76,North,0,28.0,42.0,32,0.00,,,0.00,Wunderground v.1.15,2013-01-24 16:44:00,
2013-01-24 09:50:00,50.2,22.2,29.76,West,275,23.0,32.0,33,0.00,,,0.00,Wunderground v.1.15,2013-01-24 16:50:00,
2013-01-24 09:54:00,50.1,21.3,29.76,West,272,31.0,41.0,32,0.00,,,0.00,Wunderground v.1.15,2013-01-24 16:54:00,
2013-01-24 10:00:00,49.9,21.9,29.76,West,274,30.0,33.0,33,0.00,,,0.00,Wunderground v.1.15,2013-01-24 17:00:00,
2013-01-24 10:05:00,49.8,21.8,29.76,WNW,284,30.0,41.0,33,0.00,,,0.00,Wunderground v.1.15,2013-01-24 17:05:00,
2013-01-24 10:10:00,49.8,21.8,29.76,West,269,28.0,33.0,33,0.00,,,0.00,Wunderground v.1.15,2013-01-24 17:10:00,
2013-01-24 10:15:00,49.5,21.5,29.77,West,269,26.0,40.0,33,0.00,,,0.00,Wunderground v.1.15,2013-01-24 17:15:00,
2013-01-24 10:20:00,49.5,22.3,29.77,West,278,33.0,33.0,34,0.00,,,0.00,Wunderground v.1.15,2013-01-24 17:20:00,
2013-01-24 10:25:00,49.5,21.5,29.77,WNW,282,36.0,36.0,33,0.00,,,0.00,Wunderground v.1.15,2013-01-24 17:25:00,
2013-01-24 10:30:00,49.2,22.0,29.82,WNW,288,31.0,33.0,34,0.00,,,0.00,Wunderground v.1.15,2013-01-24 17:30:00,
2013-01-24 10:35:00,49.2,22.0,29.82,West,281,31.0,36.0,34,0.00,,,0.00,Wunderground v.1.15,2013-01-24 17:35:00,
2013-01-24 10:40:00,49.4,22.2,29.82,WNW,283,29.0,33.0,34,0.00,,,0.00,Wunderground v.1.15,2013-01-24 17:40:00,
2013-01-24 10:45:00,49.4,22.9,29.82,WNW,290,33.0,36.0,35,0.00,,,0.00,Wunderground v.1.15,2013-01-24 17:45:00,
2013-01-24 10:50:00,49.6,22.3,29.82,West,279,27.0,31.0,34,0.00,,,0.00,Wunderground v.1.15,2013-01-24 17:50:00,
2013-01-24 10:55:00,49.8,23.2,29.82,North,0,33.0,33.0,35,0.00,,,0.00,Wunderground v.1.15,2013-01-24 17:55:00,
2013-01-24 11:00:00,49.8,23.2,29.81,West,281,27.0,30.0,35,0.00,,,0.00,Wunderground v.1.15,2013-01-24 18:00:00,
2013-01-24 11:05:00,49.8,23.2,29.81,West,278,24.0,33.0,35,0.00,,,0.00,Wunderground v.1.15,2013-01-24 18:05:00,
2013-01-24 11:10:00,49.8,23.2,29.81,West,270,31.0,32.0,35,0.00,,,0.00,Wunderground v.1.15,2013-01-24 18:10:00,
2013-01-24 11:15:00,50.1,23.5,29.80,West,267,24.0,33.0,35,0.00,,,0.00,Wunderground v.1.15,2013-01-24 18:15:00,
2013-01-24 11:20:00,50.5,23.8,29.80,West,270,22.0,27.0,35,0.00,,,0.00,Wunderground v.1.15,2013-01-24 18:20:00,
2013-01-24 11:25:00,50.5,23.8,29.80,West,274,29.0,33.0,35,0.00,,,0.00,Wunderground v.1.15,2013-01-24 18:25:00,
2013-01-24 11:30:00,51.0,24.3,29.79,West,277,30.0,30.0,35,0.00,,,0.00,Wunderground v.1.15,2013-01-24 18:30:00,
2013-01-24 11:35:00,51.6,24.1,29.79,West,276,21.0,32.0,34,0.00,,,0.00,Wunderground v.1.15,2013-01-24 18:35:00,
2013-01-24 11:40:00,51.1,24.4,29.79,West,267,40.0,40.0,35,0.00,,,0.00,Wunderground v.1.15,2013-01-24 18:40:00,
2013-01-24 11:45:00,51.3,24.5,29.79,West,280,30.0,40.0,35,0.00,,,0.00,Wunderground v.1.15,2013-01-24 18:45:00,
2013-01-24 11:50:00,51.4,24.6,29.79,West,262,29.0,32.0,35,0.00,,,0.00,Wunderground v.1.15,2013-01-24 18:50:00,
2013-01-24 11:55:00,51.6,24.8,29.79,West,269,30.0,37.0,35,0.00,,,0.00,Wunderground v.1.15,2013-01-24 18:55:00,
2013-01-24 12:00:00,51.0,24.3,29.78,WSW,257,31.0,35.0,35,0.00,,,0.00,Wunderground v.1.15,2013-01-24 19:00:00,
2013-01-24 12:05:00,51.1,24.4,29.78,West,265,31.0,37.0,35,0.00,,,0.00,Wunderground v.1.15,2013-01-24 19:05:00,
2013-01-24 12:10:00,51.4,24.6,29.78,West,267,28.0,33.0,35,0.00,,,0.00,Wunderground v.1.15,2013-01-24 19:10:00,
2013-01-24 12:15:00,52.0,24.5,29.77,West,264,27.0,33.0,34,0.00,,,0.00,Wunderground v.1.15,2013-01-24 19:15:00,
2013-01-24 12:21:00,51.3,24.5,29.77,West,268,34.0,38.0,35,0.00,,,0.00,Wunderground v.1.15,2013-01-24 19:21:00,
2013-01-24 12:25:00,51.3,24.5,29.77,West,268,23.0,38.0,35,0.00,,,0.00,Wunderground v.1.15,2013-01-24 19:25:00,
2013-01-24 12:31:00,52.0,24.5,29.77,West,270,30.0,35.0,34,0.00,,,0.00,Wunderground v.1.15,2013-01-24 19:31:00,
2013-01-24 12:36:00,51.1,24.4,29.77,WNW,291,24.0,37.0,35,0.00,,,0.00,Wunderground v.1.15,2013-01-24 19:36:00,
2013-01-24 12:41:00,51.0,25.6,29.77,WNW,285,18.0,32.0,37,0.00,,,0.00,Wunderground v.1.15,2013-01-24 19:41:00,
2013-01-24 12:46:00,51.3,25.2,29.76,West,271,34.0,34.0,36,0.00,,,0.00,Wunderground v.1.15,2013-01-24 19:46:00,
2013-01-24 12:51:00,50.8,25.4,29.76,West,281,28.0,33.0,37,0.00,,,0.00,Wunderground v.1.15,2013-01-24 19:51:00,
2013-01-24 12:56:00,50.7,26.0,29.76,West,275,23.0,36.0,38,0.00,,,0.00,Wunderground v.1.15,2013-01-24 19:56:00,
2013-01-24 13:01:00,50.1,26.1,29.77,West,265,31.0,34.0,39,0.00,,,0.00,Wunderground v.1.15,2013-01-24 20:01:00,
2013-01-24 13:06:00,49.8,26.4,29.77,West,275,24.0,34.0,40,0.00,,,0.00,Wunderground v.1.15,2013-01-24 20:06:00,
2013-01-24 13:11:00,49.6,26.2,29.77,West,264,22.0,32.0,40,0.00,,,0.00,Wunderground v.1.15,2013-01-24 20:11:00,
2013-01-24 13:16:00,49.5,26.7,29.77,WNW,285,26.0,33.0,41,0.00,,,0.00,Wunderground v.1.15,2013-01-24 20:16:00,
2013-01-24 13:21:00,49.4,26.7,29.77,West,266,33.0,33.0,41,0.00,,,0.00,Wunderground v.1.15,2013-01-24 20:21:00,
2013-01-24 13:26:00,49.5,26.7,29.77,WSW,249,24.0,37.0,41,0.00,,,0.00,Wunderground v.1.15,2013-01-24 20:26:00,
2013-01-24 13:31:00,49.4,26.7,29.77,West,273,24.0,33.0,41,0.00,,,0.00,Wunderground v.1.15,2013-01-24 20:31:00,
2013-01-24 13:36:00,49.5,26.7,29.77,West,259,24.0,33.0,41,0.00,,,0.00,Wunderground v.1.15,2013-01-24 20:36:00,
2013-01-24 13:41:00,49.5,26.7,29.77,WSW,253,20.0,30.0,41,0.00,,,0.00,Wunderground v.1.15,2013-01-24 20:41:00,
2013-01-24 13:46:00,49.5,26.7,29.78,West,266,29.0,34.0,41,0.00,,,0.00,Wunderground v.1.15,2013-01-24 20:46:00,
2013-01-24 13:51:00,49.8,27.0,29.78,West,274,29.0,35.0,41,0.00,,,0.00,Wunderground v.1.15,2013-01-24 20:51:00,
2013-01-24 13:56:00,49.8,27.0,29.78,West,269,29.0,35.0,41,0.00,,,0.00,Wunderground v.1.15,2013-01-24 20:56:00,
2013-01-24 14:01:00,49.8,27.0,29.79,West,265,24.0,28.0,41,0.00,,,0.00,Wunderground v.1.15,2013-01-24 21:01:00,
2013-01-24 14:06:00,49.8,27.0,29.79,West,268,31.0,32.0,41,0.00,,,0.00,Wunderground v.1.15,2013-01-24 21:06:00,
2013-01-24 14:11:00,49.4,26.7,29.79,West,268,24.0,32.0,41,0.00,,,0.00,Wunderground v.1.15,2013-01-24 21:11:00,
2013-01-24 14:16:00,49.4,27.2,29.79,West,271,26.0,32.0,42,0.00,,,0.00,Wunderground v.1.15,2013-01-24 21:16:00,
2013-01-24 14:21:00,49.4,27.2,29.79,West,281,30.0,30.0,42,0.00,,,0.00,Wunderground v.1.15,2013-01-24 21:21:00,
2013-01-24 14:26:00,49.1,27.0,29.79,WNW,290,20.0,32.0,42,0.00,,,0.00,Wunderground v.1.15,2013-01-24 21:26:00,
2013-01-24 14:31:00,48.9,27.4,29.80,WNW,289,22.0,33.0,43,0.00,,,0.00,Wunderground v.1.15,2013-01-24 21:31:00,
2013-01-24 14:36:00,48.9,27.4,29.80,WNW,284,28.0,33.0,43,0.00,,,0.00,Wunderground v.1.15,2013-01-24 21:36:00,
2013-01-24 14:41:00,48.9,27.4,29.80,WSW,252,21.0,33.0,43,0.00,,,0.00,Wunderground v.1.15,2013-01-24 21:41:00,
2013-01-24 14:46:00,48.9,26.2,29.81,West,262,23.0,33.0,41,0.00,,,0.00,Wunderground v.1.15,2013-01-24 21:46:00,
2013-01-24 14:51:00,48.9,27.4,29.81,WNW,289,24.0,24.0,43,0.00,,,0.00,Wunderground v.1.15,2013-01-24 21:51:00,
2013-01-24 14:56:00,49.2,27.6,29.81,West,267,21.0,28.0,43,0.00,,,0.00,Wunderground v.1.15,2013-01-24 21:56:00,
2013-01-24 15:01:00,49.2,27.6,29.82,West,269,24.0,28.0,43,0.00,,,0.00,Wunderground v.1.15,2013-01-24 22:01:00,
2013-01-24 15:06:00,49.2,27.6,29.82,West,271,20.0,29.0,43,0.00,,,0.00,Wunderground v.1.15,2013-01-24 22:06:00,
2013-01-24 15:12:00,49.1,27.5,29.82,West,274,26.0,32.0,43,0.00,,,0.00,Wunderground v.1.15,2013-01-24 22:12:00,
2013-01-24 15:17:00,49.1,27.5,29.82,West,280,29.0,32.0,43,0.00,,,0.00,Wunderground v.1.15,2013-01-24 22:17:00,
2013-01-24 15:22:00,48.9,27.9,29.82,WNW,283,24.0,30.0,44,0.00,,,0.00,Wunderground v.1.15,2013-01-24 22:22:00,
2013-01-24 15:27:00,48.8,27.8,29.82,West,274,26.0,30.0,44,0.00,,,0.00,Wunderground v.1.15,2013-01-24 22:27:00,
2013-01-24 15:32:00,48.6,27.6,29.85,West,279,23.0,29.0,44,0.00,,,0.00,Wunderground v.1.15,2013-01-24 22:32:00,
2013-01-24 15:37:00,48.5,27.6,29.85,WNW,283,26.0,33.0,44,0.00,,,0.00,Wunderground v.1.15,2013-01-24 22:37:00,
2013-01-24 15:42:00,48.5,28.1,29.85,West,276,21.0,28.0,45,0.00,,,0.00,Wunderground v.1.15,2013-01-24 22:42:00,
2013-01-24 15:47:00,48.3,27.9,29.85,WNW,288,22.0,28.0,45,0.00,,,0.00,Wunderground v.1.15,2013-01-24 22:47:00,
2013-01-24 15:52:00,48.2,27.8,29.85,West,274,18.0,25.0,45,0.00,,,0.00,Wunderground v.1.15,2013-01-24 22:52:00,
2013-01-24 15:57:00,48.0,27.6,29.85,WSW,253,21.0,28.0,45,0.00,,,0.00,Wunderground v.1.15,2013-01-24 22:57:00,
2013-01-24 16:02:00,48.0,27.6,29.86,West,268,21.0,25.0,45,0.00,,,0.00,Wunderground v.1.15,2013-01-24 23:02:00,
2013-01-24 16:07:00,47.9,28.1,29.86,WSW,253,18.0,25.0,46,0.00,,,0.00,Wunderground v.1.15,2013-01-24 23:07:00,
2013-01-24 16:12:00,47.7,27.9,29.86,West,270,15.0,28.0,46,0.00,,,0.00,Wunderground v.1.15,2013-01-24 23:12:00,
2013-01-24 16:17:00,47.7,27.9,29.86,West,267,17.0,28.0,46,0.00,,,0.00,Wunderground v.1.15,2013-01-24 23:17:00,
2013-01-24 16:22:00,47.4,27.6,29.86,West,263,19.0,20.0,46,0.00,,,0.00,Wunderground v.1.15,2013-01-24 23:22:00,
2013-01-24 16:27:00,47.4,28.2,29.86,West,271,15.0,24.0,47,0.00,,,0.00,Wunderground v.1.15,2013-01-24 23:27:00,
2013-01-24 16:32:00,47.3,28.1,29.85,West,263,19.0,25.0,47,0.00,,,0.00,Wunderground v.1.15,2013-01-24 23:32:00,
2013-01-24 16:37:00,47.1,27.9,29.85,WSW,258,12.0,25.0,47,0.00,,,0.00,Wunderground v.1.15,2013-01-24 23:37:00,
2013-01-24 16:42:00,47.0,27.8,29.85,WSW,253,13.0,23.0,47,0.00,,,0.00,Wunderground v.1.15,2013-01-24 23:42:00,
2013-01-24 16:47:00,46.7,28.0,29.85,West,259,18.0,23.0,48,0.00,,,0.00,Wunderground v.1.15,2013-01-24 23:47:00,
2013-01-24 16:52:00,46.7,28.0,29.85,West,267,12.0,23.0,48,0.00,,,0.00,Wunderground v.1.15,2013-01-24 23:52:00,
2013-01-24 16:57:00,46.5,28.3,29.85,West,265,17.0,23.0,49,0.00,,,0.00,Wunderground v.1.15,2013-01-24 23:57:00,
2013-01-24 17:02:00,46.2,28.1,29.89,WSW,258,17.0,22.0,49,0.00,,,0.00,Wunderground v.1.15,2013-01-25 00:02:00,
2013-01-24 17:07:00,46.1,28.0,29.89,West,266,13.0,23.0,49,0.00,,,0.00,Wunderground v.1.15,2013-01-25 00:07:00,
2013-01-24 17:12:00,46.1,28.5,29.89,West,278,11.0,19.0,50,0.00,,,0.00,Wunderground v.1.15,2013-01-25 00:12:00,
2013-01-24 17:18:00,45.8,28.2,29.91,West,264,13.0,19.0,50,0.00,,,0.00,Wunderground v.1.15,2013-01-25 00:18:00,
2013-01-24 17:23:00,45.8,28.7,29.91,West,266,12.0,19.0,51,0.00,,,0.00,Wunderground v.1.15,2013-01-25 00:23:00,
2013-01-24 17:28:00,45.8,28.7,29.91,West,272,16.0,22.0,51,0.00,,,0.00,Wunderground v.1.15,2013-01-25 00:28:00,
2013-01-24 17:33:00,45.5,28.4,29.90,West,269,16.0,18.0,51,0.00,,,0.00,Wunderground v.1.15,2013-01-25 00:33:00,
2013-01-24 17:38:00,45.2,28.6,29.90,West,266,14.0,21.0,52,0.00,,,0.00,Wunderground v.1.15,2013-01-25 00:38:00,
2013-01-24 17:43:00,44.8,28.7,29.90,WSW,258,12.0,21.0,53,0.00,,,0.00,Wunderground v.1.15,2013-01-25 00:43:00,
2013-01-24 17:48:00,44.5,28.4,29.90,West,268,14.0,21.0,53,0.00,,,0.00,Wunderground v.1.15,2013-01-25 00:48:00,
2013-01-24 17:53:00,44.1,28.5,29.90,West,263,12.0,17.0,54,0.00,,,0.00,Wunderground v.1.15,2013-01-25 00:53:00,
2013-01-24 17:58:00,43.9,28.3,29.90,WSW,249,13.0,20.0,54,0.00,,,0.00,Wunderground v.1.15,2013-01-25 00:58:00,
2013-01-24 18:03:00,43.6,28.5,29.92,West,278,13.0,18.0,55,0.00,,,0.00,Wunderground v.1.15,2013-01-25 01:03:00,
2013-01-24 18:08:00,43.2,28.1,29.92,West,265,11.0,18.0,55,0.00,,,0.00,Wunderground v.1.15,2013-01-25 01:08:00,
2013-01-24 18:13:00,43.1,28.5,29.92,West,266,11.0,13.0,56,0.00,,,0.00,Wunderground v.1.15,2013-01-25 01:13:00,
2013-01-24 18:18:00,42.8,28.2,29.93,WSW,250,11.0,15.0,56,0.00,,,0.00,Wunderground v.1.15,2013-01-25 01:18:00,
2013-01-24 18:23:00,42.6,28.0,29.93,WSW,240,19.0,19.0,56,0.00,,,0.00,Wunderground v.1.15,2013-01-25 01:23:00,
2013-01-24 18:28:00,42.5,28.3,29.93,West,260,12.0,19.0,57,0.00,,,0.00,Wunderground v.1.15,2013-01-25 01:28:00,
2013-01-24 18:33:00,42.2,28.0,29.92,West,271,10.0,18.0,57,0.00,,,0.00,Wunderground v.1.15,2013-01-25 01:33:00,
2013-01-24 18:38:00,41.5,28.2,29.92,West,259,9.0,18.0,59,0.00,,,0.00,Wunderground v.1.15,2013-01-25 01:38:00,
2013-01-24 18:43:00,41.1,27.9,29.92,WSW,257,10.0,13.0,59,0.00,,,0.00,Wunderground v.1.15,2013-01-25 01:43:00,
2013-01-24 18:48:00,40.6,27.8,29.95,WSW,250,11.0,13.0,60,0.00,,,0.00,Wunderground v.1.15,2013-01-25 01:48:00,
2013-01-24 18:53:00,40.2,27.8,29.95,WSW,256,12.0,13.0,61,0.00,,,0.00,Wunderground v.1.15,2013-01-25 01:53:00,
2013-01-24 18:58:00,40.3,27.5,29.95,WSW,257,12.0,15.0,60,0.00,,,0.00,Wunderground v.1.15,2013-01-25 01:58:00,
2013-01-24 19:03:00,40.6,27.8,29.95,WSW,258,12.0,15.0,60,0.00,,,0.00,Wunderground v.1.15,2013-01-25 02:03:00,
2013-01-24 19:08:00,40.6,27.8,29.95,West,271,12.0,15.0,60,0.00,,,0.00,Wunderground v.1.15,2013-01-25 02:08:00,
2013-01-24 19:13:00,40.3,27.5,29.95,West,279,11.0,14.0,60,0.00,,,0.00,Wunderground v.1.15,2013-01-25 02:13:00,
2013-01-24 19:18:00,39.8,27.4,29.95,WNW,291,12.0,14.0,61,0.00,,,0.00,Wunderground v.1.15,2013-01-25 02:18:00,
2013-01-24 19:23:00,39.6,27.6,29.95,WNW,286,8.0,13.0,62,0.00,,,0.00,Wunderground v.1.15,2013-01-25 02:23:00,
2013-01-24 19:28:00,39.3,27.4,29.95,WNW,288,11.0,13.0,62,0.00,,,0.00,Wunderground v.1.15,2013-01-25 02:28:00,
2013-01-24 19:33:00,39.6,27.6,29.97,West,273,11.0,14.0,62,0.00,,,0.00,Wunderground v.1.15,2013-01-25 02:33:00,
2013-01-24 19:38:00,39.6,27.2,29.97,West,264,9.0,14.0,61,0.00,,,0.00,Wunderground v.1.15,2013-01-25 02:38:00,
2013-01-24 19:43:00,39.1,27.2,29.97,West,272,10.0,12.0,62,0.00,,,0.00,Wunderground v.1.15,2013-01-25 02:43:00,
2013-01-24 19:48:00,38.5,27.4,29.97,West,278,7.0,12.0,64,0.00,,,0.00,Wunderground v.1.15,2013-01-25 02:48:00,
2013-01-24 19:53:00,37.8,27.1,29.97,West,278,6.0,10.0,65,0.00,,,0.00,Wunderground v.1.15,2013-01-25 02:53:00,
2013-01-24 19:58:00,37.2,26.9,29.97,West,279,7.0,10.0,66,0.00,,,0.00,Wunderground v.1.15,2013-01-25 02:58:00,
2013-01-24 20:03:00,36.8,26.9,29.99,West,280,6.0,9.0,67,0.00,,,0.00,Wunderground v.1.15,2013-01-25 03:03:00,
2013-01-24 20:08:00,36.3,26.4,29.99,West,278,7.0,10.0,67,0.00,,,0.00,Wunderground v.1.15,2013-01-25 03:08:00,
2013-01-24 20:13:00,35.8,26.3,29.99,West,278,5.0,7.0,68,0.00,,,0.00,Wunderground v.1.15,2013-01-25 03:13:00,
2013-01-24 20:19:00,34.9,25.4,29.99,West,269,4.0,7.0,68,0.00,,,0.00,Wunderground v.1.15,2013-01-25 03:19:00,
2013-01-24 20:24:00,34.1,25.7,29.99,West,275,4.0,7.0,71,0.00,,,0.00,Wunderground v.1.15,2013-01-25 03:24:00,
2013-01-24 20:29:00,34.0,25.6,29.96,West,274,4.0,7.0,71,0.00,,,0.00,Wunderground v.1.15,2013-01-25 03:29:00,
2013-01-24 20:34:00,33.5,25.8,29.96,West,276,4.0,5.0,73,0.00,,,0.00,Wunderground v.1.15,2013-01-25 03:34:00,
2013-01-24 20:39:00,33.4,26.0,29.96,North,0,7.0,8.0,74,0.00,,,0.00,Wunderground v.1.15,2013-01-25 03:39:00,
2013-01-24 20:44:00,33.5,26.1,29.98,NW,311,7.0,10.0,74,0.00,,,0.00,Wunderground v.1.15,2013-01-25 03:44:00,
2013-01-24 20:49:00,33.8,26.4,29.98,NW,310,10.0,16.0,74,0.00,,,0.00,Wunderground v.1.15,2013-01-25 03:49:00,
2013-01-24 20:54:00,34.6,27.2,29.98,WNW,302,12.0,18.0,74,0.00,,,0.00,Wunderground v.1.15,2013-01-25 03:54:00,
2013-01-24 20:59:00,35.2,27.4,29.96,NW,306,12.0,19.0,73,0.00,,,0.00,Wunderground v.1.15,2013-01-25 03:59:00,
2013-01-24 21:04:00,35.2,27.1,29.96,WNW,302,12.0,16.0,72,0.00,,,0.00,Wunderground v.1.15,2013-01-25 04:04:00,
2013-01-24 21:09:00,34.9,26.8,29.96,WNW,298,13.0,16.0,72,0.00,,,0.00,Wunderground v.1.15,2013-01-25 04:09:00,
2013-01-24 21:14:00,34.6,26.8,29.96,NW,304,12.0,16.0,73,0.00,,,0.00,Wunderground v.1.15,2013-01-25 04:14:00,
2013-01-24 21:19:00,34.7,26.9,29.96,WNW,298,12.0,16.0,73,0.00,,,0.00,Wunderground v.1.15,2013-01-25 04:19:00,
2013-01-24 21:24:00,35.0,27.2,29.96,NW,307,13.0,17.0,73,0.00,,,0.00,Wunderground v.1.15,2013-01-25 04:24:00,
2013-01-24 21:29:00,34.9,26.8,29.98,WNW,300,13.0,17.0,72,0.00,,,0.00,Wunderground v.1.15,2013-01-25 04:29:00,
2013-01-24 21:34:00,34.6,26.5,29.98,WNW,302,15.0,16.0,72,0.00,,,0.00,Wunderground v.1.15,2013-01-25 04:34:00,
2013-01-24 21:39:00,34.3,26.2,29.98,WNW,301,11.0,17.0,72,0.00,,,0.00,Wunderground v.1.15,2013-01-25 04:39:00,
2013-01-24 21:44:00,34.1,26.3,29.98,WNW,295,10.0,16.0,73,0.00,,,0.00,Wunderground v.1.15,2013-01-25 04:44:00,
2013-01-24 21:49:00,33.8,26.1,29.98,WNW,301,12.0,16.0,73,0.00,,,0.00,Wunderground v.1.15,2013-01-25 04:49:00,
2013-01-24 21:54:00,33.7,26.3,29.98,NW,304,11.0,15.0,74,0.00,,,0.00,Wunderground v.1.15,2013-01-25 04:54:00,
2013-01-24 21:59:00,33.5,26.1,29.99,WNW,295,10.0,15.0,74,0.00,,,0.00,Wunderground v.1.15,2013-01-25 04:59:00,
2013-01-24 22:00:00,33.5,26.1,29.99,WNW,300,13.0,13.0,74,0.00,,,0.00,Wunderground v.1.15,2013-01-25 05:00:00,
2013-01-24 22:01:00,33.5,26.1,29.99,WNW,297,11.0,13.0,74,0.00,,,0.00,Wunderground v.1.15,2013-01-25 05:01:00,
2013-01-24 22:03:00,33.4,26.0,29.99,WNW,297,12.0,13.0,74,0.00,,,0.00,Wunderground v.1.15,2013-01-25 05:03:00,
2013-01-24 22:04:00,33.4,26.0,29.99,WNW,297,9.0,13.0,74,0.00,,,0.00,Wunderground v.1.15,2013-01-25 05:04:00,
2013-01-24 22:09:00,33.2,26.1,29.99,NW,307,10.0,14.0,75,0.00,,,0.00,Wunderground v.1.15,2013-01-25 05:09:00,
2013-01-24 22:14:00,33.1,26.0,30.00,NW,307,10.0,15.0,75,0.00,,,0.00,Wunderground v.1.15,2013-01-25 05:14:00,
2013-01-24 22:19:00,32.8,25.7,30.00,NW,304,12.0,15.0,75,0.00,,,0.00,Wunderground v.1.15,2013-01-25 05:19:00,
2013-01-24 22:24:00,32.5,25.8,30.00,WNW,303,12.0,15.0,76,0.00,,,0.00,Wunderground v.1.15,2013-01-25 05:24:00,
2013-01-24 22:29:00,32.2,25.5,30.00,WNW,297,11.0,15.0,76,0.00,,,0.00,Wunderground v.1.15,2013-01-25 05:29:00,
2013-01-24 22:34:00,31.9,25.2,30.00,WNW,296,11.0,14.0,76,0.00,,,0.00,Wunderground v.1.15,2013-01-25 05:34:00,
2013-01-24 22:39:00,32.1,25.7,30.00,WNW,290,10.0,15.0,77,0.00,,,0.00,Wunderground v.1.15,2013-01-25 05:39:00,
2013-01-24 22:44:00,32.1,25.7,30.00,WNW,290,11.0,14.0,77,0.00,,,0.00,Wunderground v.1.15,2013-01-25 05:44:00,
2013-01-24 22:49:00,31.9,25.5,30.00,WNW,288,11.0,14.0,77,0.00,,,0.00,Wunderground v.1.15,2013-01-25 05:49:00,
2013-01-24 22:54:00,31.9,25.5,30.00,West,280,13.0,14.0,77,0.00,,,0.00,Wunderground v.1.15,2013-01-25 05:54:00,
2013-01-24 22:59:00,31.8,25.4,30.00,WNW,285,13.0,14.0,77,0.00,,,0.00,Wunderground v.1.15,2013-01-25 05:59:00,
2013-01-24 23:04:00,31.5,25.1,30.00,WNW,289,11.0,13.0,77,0.00,,,0.00,Wunderground v.1.15,2013-01-25 06:04:00,
2013-01-24 23:09:00,31.0,24.6,30.00,West,280,10.0,13.0,77,0.00,,,0.00,Wunderground v.1.15,2013-01-25 06:09:00,
2013-01-24 23:14:00,30.9,25.2,30.01,WNW,287,9.0,16.0,79,0.00,,,0.00,Wunderground v.1.15,2013-01-25 06:14:00,
2013-01-24 23:19:00,31.2,25.4,30.01,WNW,284,9.0,16.0,79,0.00,,,0.00,Wunderground v.1.15,2013-01-25 06:19:00,
2013-01-24 23:24:00,31.8,25.7,30.01,West,281,13.0,17.0,78,0.00,,,0.00,Wunderground v.1.15,2013-01-25 06:24:00,
2013-01-24 23:29:00,32.8,26.1,29.99,West,276,14.0,14.0,76,0.00,,,0.00,Wunderground v.1.15,2013-01-25 06:29:00,
2013-01-24 23:34:00,33.2,25.8,29.99,WNW,288,12.0,15.0,74,0.00,,,0.00,Wunderground v.1.15,2013-01-25 06:34:00,
2013-01-24 23:40:00,33.4,26.0,29.99,WNW,299,10.0,12.0,74,0.00,,,0.00,Wunderground v.1.15,2013-01-25 06:40:00,
2013-01-24 23:45:00,32.4,25.0,29.99,WNW,283,8.0,12.0,74,0.00,,,0.00,Wunderground v.1.15,2013-01-25 06:45:00,
2013-01-24 23:50:00,31.0,24.3,29.99,WNW,286,12.0,12.0,76,0.00,,,0.00,Wunderground v.1.15,2013-01-25 06:50:00,
2013-01-24 23:55:00,31.2,25.1,29.99,West,276,13.0,15.0,78,0.00,,,0.00,Wunderground v.1.15,2013-01-25 06:55:00,